Regional Weather Roundup
Issued by NWS

Home | Current Version | Previous Version | Text Only | Print | Product List | Glossary Off
Versions: 1 2 3 4 5 6 7 8 9 10 11 12 13 14 15 16 17 18 19 20 21 22 23 24 25 26 27 28 29 30 31 32 33 34 35 36 37 38 39 40 41 42 43 44 45 46 47 48 49 50

000
ASUS43 KFSD 051702
RWRSD

WEATHER ROUNDUP FOR SOUTH DAKOTA
NATIONAL WEATHER SERVICE SIOUX FALLS SD
1200 PM CDT TUE MAY 05 2015

NOTE: "FAIR" INDICATES FEW OR NO CLOUDS BELOW 12,000 FEET WITH NO
SIGNIFICANT WEATHER AND/OR OBSTRUCTIONS TO VISIBILITY.


SDZ001>005-009-010-012>017-051800-
NORTHWEST AND NORTH CENTRAL SOUTH DAKOTA

CITY           SKY/WX    TMP DP  RH WIND       PRES   REMARKS
BUFFALO          N/A     68  46  45 S25G37    29.85F
FAITH            N/A     61  45  55 SE18      29.99F
MOBRIDGE       SUNNY     71  33  24 SE21      30.00F
$$

SDZ012>016-024>037-041>051-057-063-072>074-051800-
SOUTHWEST AND SOUTH CENTRAL SOUTH DAKOTA

CITY           SKY/WX    TMP DP  RH WIND       PRES   REMARKS
RAPID CTY ARPT CLOUDY    59  44  57 SE15      29.97F
PIERRE         MOSUNNY   69  40  34 SE18G26   30.01F
CUSTER           N/A    N/A N/A N/A MISG      29.99S
PHILIP         CLOUDY    59  49  69 SE14G22   30.00F
PINE RIDGE     CLOUDY    56  47  71 SE9       29.99S
WINNER         CLOUDY    64  49  57 SE16      30.03F
$$

SDZ004>011-016>023-039-040-051800-
NORTHEAST SOUTH DAKOTA

CITY           SKY/WX    TMP DP  RH WIND       PRES   REMARKS
ABERDEEN       SUNNY     73  26  17 SE18G29   30.06F
WATERTOWN      SUNNY     69  32  25 E16G30    30.10F
BROOKINGS      MOSUNNY   70  39  32 E22G28    30.08F
SISSETON         N/A     72  26  18 SE16G25   30.09F
$$

SDZ017-020-022-023-036>040-048>070-051800-
SOUTHEAST SOUTH DAKOTA

CITY           SKY/WX    TMP DP  RH WIND       PRES   REMARKS
SIOUX FALLS    CLOUDY    67  51  56 SE15      30.07F
HURON          SUNNY     73  37  27 SE14G22   30.04F
MITCHELL       PTSUNNY   69  40  34 SE14      30.06F
YANKTON        CLOUDY    61  52  72 SE9       30.07S
$$

ABBREVIATIONS USED IN REMARKS
   TC - TEMPERATURE IN CELSIUS
  WCI - WIND CHILL INDEX
   HX - HEAT INDEX
  VSB - VISIBILITY



USA.gov is the U.S. government's official web portal to all federal, state and local government web resources and services.